IBE06MP LEMD-LIRF

Flight info

Callsign IBE06MP
Flight time 1h 39m
Altitude 34000
Route PINAR N870 BCN N725 OSPOK DCT NOLVI DCT ORKUM DCT ELSAG DCT ALG DCT TINTO DCT VALMA
Aircraft A321/M-SDE3FGHIRWY/LB1

Departure

Time 2026-05-06 10:59
Airport Adolfo Suárez Madrid–Barajas Airport (LEMD)

Arrival

Time 2026-05-06 12:38
Airport Rome–Fiumicino Leonardo da Vinci International Airport (LIRF)
Time Latitude Longitude Altitude Speed Heading
2026-05-06 10:21 40.49444 -3.58969 2030 ft 0 kts 270°
2026-05-06 10:44 40.49444 -3.58936 2038 ft 4 kts 270°
2026-05-06 10:44 40.49444 -3.58908 2026 ft 4 kts 252°
2026-05-06 10:44 40.49458 -3.58886 2032 ft 4 kts 192°
2026-05-06 10:44 40.49482 -3.58884 2028 ft 2 kts 180°
2026-05-06 10:45 40.49484 -3.58884 2028 ft 0 kts 180°
2026-05-06 10:47 40.49477 -3.58884 2028 ft 2 kts 180°
2026-05-06 10:47 40.49453 -3.58884 2027 ft 5 kts 180°
2026-05-06 10:47 40.49406 -3.58884 2022 ft 7 kts 179°
2026-05-06 10:48 40.49370 -3.58883 2030 ft 5 kts 179°
2026-05-06 10:48 40.49330 -3.58883 2026 ft 8 kts 180°
2026-05-06 10:48 40.49277 -3.58882 2029 ft 6 kts 180°
2026-05-06 10:48 40.49244 -3.58882 2025 ft 5 kts 180°
2026-05-06 10:49 40.49188 -3.58881 2022 ft 12 kts 179°
2026-05-06 10:49 40.49094 -3.58880 2022 ft 13 kts 180°
2026-05-06 10:49 40.49007 -3.58880 2027 ft 12 kts 179°
2026-05-06 10:49 40.48934 -3.58879 2027 ft 10 kts 179°
2026-05-06 10:50 40.48871 -3.58878 2030 ft 8 kts 180°
2026-05-06 10:50 40.48823 -3.58878 2022 ft 6 kts 180°
2026-05-06 10:50 40.48782 -3.58875 2022 ft 8 kts 168°
2026-05-06 10:50 40.48759 -3.58808 2022 ft 9 kts 91°
2026-05-06 10:51 40.48759 -3.58712 2022 ft 13 kts 89°
2026-05-06 10:51 40.48760 -3.58567 2021 ft 17 kts 90°
2026-05-06 10:51 40.48760 -3.58400 2015 ft 19 kts 89°
2026-05-06 10:51 40.48761 -3.58215 2009 ft 19 kts 90°
2026-05-06 10:52 40.48765 -3.58087 2004 ft 13 kts 72°
2026-05-06 10:52 40.48838 -3.58040 2000 ft 12 kts 31°
2026-05-06 10:52 40.48857 -3.57926 1998 ft 17 kts 89°
2026-05-06 10:52 40.48858 -3.57718 1992 ft 27 kts 90°
2026-05-06 10:53 40.48859 -3.57473 1988 ft 27 kts 90°
2026-05-06 10:53 40.48860 -3.57226 1983 ft 27 kts 90°
2026-05-06 10:53 40.48861 -3.56978 1979 ft 28 kts 89°
2026-05-06 10:53 40.48862 -3.56724 1974 ft 28 kts 90°
2026-05-06 10:54 40.48862 -3.56523 1969 ft 19 kts 89°
2026-05-06 10:54 40.48862 -3.56362 1965 ft 16 kts 90°
2026-05-06 10:54 40.48883 -3.56254 1962 ft 12 kts 38°
2026-05-06 10:54 40.48961 -3.56244 1962 ft 11 kts
2026-05-06 10:55 40.49031 -3.56243 1962 ft 10 kts
2026-05-06 10:55 40.49099 -3.56244 1962 ft 10 kts 359°
2026-05-06 10:55 40.49176 -3.56246 1962 ft 12 kts 360°
2026-05-06 10:55 40.49299 -3.56246 1961 ft 22 kts 359°
2026-05-06 10:56 40.49447 -3.56247 1961 ft 21 kts 359°
2026-05-06 10:56 40.49588 -3.56248 1961 ft 19 kts 360°
2026-05-06 10:56 40.49718 -3.56249 1961 ft 18 kts 360°
2026-05-06 10:56 40.49839 -3.56249 1961 ft 17 kts 360°
2026-05-06 10:57 40.49936 -3.56211 1960 ft 15 kts 67°
2026-05-06 10:57 40.49942 -3.56072 1958 ft 15 kts 84°
2026-05-06 10:57 40.49985 -3.55962 1959 ft 12 kts 43°
2026-05-06 10:57 40.50065 -3.55921 1960 ft 16 kts
2026-05-06 10:58 40.50301 -3.55922 1961 ft 64 kts 360°
2026-05-06 10:58 40.50957 -3.55927 1962 ft 122 kts 360°
2026-05-06 10:58 40.51974 -3.55934 1958 ft 167 kts 360°
2026-05-06 10:58 40.53171 -3.55953 2466 ft 171 kts 360°
2026-05-06 10:59 40.54353 -3.55849 3083 ft 170 kts 14°
2026-05-06 10:59 40.55487 -3.55382 3587 ft 171 kts 18°
2026-05-06 10:59 40.56628 -3.54922 4100 ft 172 kts 17°
2026-05-06 10:59 40.57765 -3.54475 4567 ft 173 kts 17°
2026-05-06 11:00 40.58921 -3.54003 5030 ft 175 kts 21°
2026-05-06 11:00 40.60003 -3.53156 5307 ft 191 kts 41°
2026-05-06 11:00 40.61056 -3.51956 5444 ft 210 kts 40°
2026-05-06 11:00 40.62213 -3.50655 5590 ft 228 kts 40°
2026-05-06 11:01 40.63471 -3.49249 5700 ft 249 kts 40°
2026-05-06 11:01 40.64851 -3.47707 5946 ft 269 kts 40°
2026-05-06 11:01 40.66295 -3.46094 6523 ft 274 kts 40°
2026-05-06 11:01 40.67756 -3.44462 7167 ft 277 kts 40°
2026-05-06 11:02 40.69235 -3.42808 7810 ft 280 kts 39°
2026-05-06 11:02 40.70733 -3.41134 8430 ft 284 kts 40°
2026-05-06 11:02 40.72247 -3.39442 9053 ft 287 kts 40°
2026-05-06 11:02 40.73781 -3.37724 9656 ft 292 kts 40°
2026-05-06 11:03 40.75339 -3.35977 10139 ft 300 kts 40°
2026-05-06 11:03 40.76984 -3.34129 10260 ft 320 kts 40°
2026-05-06 11:03 40.78729 -3.32165 10387 ft 338 kts 40°
2026-05-06 11:03 40.80540 -3.30127 10512 ft 355 kts 40°
2026-05-06 11:04 40.82455 -3.27967 10741 ft 367 kts 40°
2026-05-06 11:04 40.84227 -3.25514 11217 ft 371 kts 52°
2026-05-06 11:04 40.85578 -3.22598 11760 ft 374 kts 65°
2026-05-06 11:04 40.86441 -3.19362 12310 ft 375 kts 75°
2026-05-06 11:05 40.87098 -3.16009 12831 ft 378 kts 75°
2026-05-06 11:05 40.87762 -3.12631 13322 ft 381 kts 75°
2026-05-06 11:05 40.88434 -3.09230 13818 ft 384 kts 74°
2026-05-06 11:05 40.89112 -3.05802 14249 ft 387 kts 75°
2026-05-06 11:06 40.89793 -3.02341 14673 ft 390 kts 75°
2026-05-06 11:06 40.90477 -2.98856 15096 ft 393 kts 74°
2026-05-06 11:06 40.91167 -2.95346 15520 ft 396 kts 74°
2026-05-06 11:06 40.91859 -2.91810 15914 ft 399 kts 74°
2026-05-06 11:07 40.92554 -2.88249 16311 ft 401 kts 74°
2026-05-06 11:07 40.93252 -2.84663 16684 ft 404 kts 74°
2026-05-06 11:07 40.93950 -2.81060 17055 ft 406 kts 74°
2026-05-06 11:07 40.94655 -2.77420 17427 ft 409 kts 74°
2026-05-06 11:08 40.95367 -2.73762 17789 ft 411 kts 74°
2026-05-06 11:08 40.96080 -2.70092 18151 ft 414 kts 74°
2026-05-06 11:08 40.96795 -2.66390 18476 ft 416 kts 74°
2026-05-06 11:08 40.97511 -2.62657 18736 ft 420 kts 74°
2026-05-06 11:09 40.98233 -2.58899 19000 ft 423 kts 74°
2026-05-06 11:09 40.98959 -2.55108 19277 ft 427 kts 74°
2026-05-06 11:09 40.99689 -2.51289 19548 ft 430 kts 74°
2026-05-06 11:09 41.00417 -2.47480 19823 ft 433 kts 74°
2026-05-06 11:10 41.01158 -2.43594 20099 ft 437 kts 75°
2026-05-06 11:10 41.01905 -2.39673 20375 ft 440 kts 75°
2026-05-06 11:10 41.02654 -2.35728 20674 ft 444 kts 75°
2026-05-06 11:10 41.03408 -2.31751 20968 ft 447 kts 75°
2026-05-06 11:11 41.04167 -2.27740 21255 ft 451 kts 75°
2026-05-06 11:11 41.04933 -2.23686 21514 ft 455 kts 75°
2026-05-06 11:11 41.05704 -2.19596 21790 ft 459 kts 75°
2026-05-06 11:11 41.06478 -2.15477 22078 ft 462 kts 75°
2026-05-06 11:12 41.07254 -2.11329 22359 ft 466 kts 75°
2026-05-06 11:12 41.08035 -2.07142 22630 ft 469 kts 76°
2026-05-06 11:12 41.08820 -2.02929 22908 ft 472 kts 75°
2026-05-06 11:12 41.09612 -1.98685 23171 ft 476 kts 76°
2026-05-06 11:13 41.10408 -1.94411 23421 ft 479 kts 76°
2026-05-06 11:13 41.11206 -1.90111 23655 ft 483 kts 76°
2026-05-06 11:13 41.12009 -1.85770 23868 ft 486 kts 76°
2026-05-06 11:13 41.12814 -1.81399 24099 ft 489 kts 76°
2026-05-06 11:14 41.13613 -1.77069 24338 ft 491 kts 76°
2026-05-06 11:14 41.14427 -1.72649 24591 ft 493 kts 76°
2026-05-06 11:14 41.15240 -1.68221 24846 ft 495 kts 76°
2026-05-06 11:14 41.16052 -1.63779 25100 ft 496 kts 76°
2026-05-06 11:15 41.16867 -1.59319 25346 ft 498 kts 76°
2026-05-06 11:15 41.17682 -1.54841 25595 ft 500 kts 76°
2026-05-06 11:15 41.18497 -1.50338 25819 ft 502 kts 76°
2026-05-06 11:15 41.19314 -1.45814 26040 ft 504 kts 76°
2026-05-06 11:16 41.20131 -1.41279 26264 ft 506 kts 76°
2026-05-06 11:16 41.20949 -1.36730 26487 ft 508 kts 76°
2026-05-06 11:16 41.21770 -1.32153 26690 ft 509 kts 76°
2026-05-06 11:16 41.22591 -1.27576 26892 ft 511 kts 76°
2026-05-06 11:17 41.23414 -1.22977 27083 ft 512 kts 76°
2026-05-06 11:17 41.24236 -1.18374 27270 ft 514 kts 76°
2026-05-06 11:17 41.25061 -1.13748 27432 ft 515 kts 77°
2026-05-06 11:17 41.25888 -1.09101 27573 ft 517 kts 77°
2026-05-06 11:18 41.26713 -1.04450 27785 ft 517 kts 77°
2026-05-06 11:18 41.27537 -0.99809 28012 ft 516 kts 77°
2026-05-06 11:18 41.28359 -0.95165 28225 ft 516 kts 77°
2026-05-06 11:18 41.29177 -0.90511 28447 ft 516 kts 77°
2026-05-06 11:19 41.29992 -0.85863 28662 ft 516 kts 77°
2026-05-06 11:19 41.30794 -0.81290 28875 ft 515 kts 77°
2026-05-06 11:19 41.31605 -0.76638 29101 ft 515 kts 77°
2026-05-06 11:19 41.32413 -0.71997 29273 ft 516 kts 77°
2026-05-06 11:20 41.33222 -0.67348 29464 ft 516 kts 77°
2026-05-06 11:20 41.34026 -0.62694 29679 ft 516 kts 77°
2026-05-06 11:20 41.34823 -0.58039 29913 ft 515 kts 79°
2026-05-06 11:20 41.35317 -0.53322 30107 ft 514 kts 88°
2026-05-06 11:21 41.35360 -0.48587 30281 ft 512 kts 92°
2026-05-06 11:21 41.35319 -0.43837 30470 ft 512 kts 92°
2026-05-06 11:21 41.35281 -0.39110 30676 ft 511 kts 92°
2026-05-06 11:21 41.35243 -0.34383 30854 ft 510 kts 92°
2026-05-06 11:22 41.35206 -0.29664 31048 ft 510 kts 92°
2026-05-06 11:22 41.35169 -0.24933 31240 ft 510 kts 92°
2026-05-06 11:22 41.35130 -0.20216 31438 ft 509 kts 92°
2026-05-06 11:22 41.35087 -0.15511 31638 ft 508 kts 92°
2026-05-06 11:23 41.35042 -0.10866 31835 ft 508 kts 92°
2026-05-06 11:23 41.34996 -0.06163 32036 ft 507 kts 92°
2026-05-06 11:23 41.34948 -0.01478 32227 ft 507 kts 92°
2026-05-06 11:23 41.34897 0.03205 32401 ft 506 kts 93°
2026-05-06 11:24 41.34842 0.07890 32583 ft 506 kts 93°
2026-05-06 11:24 41.34784 0.12571 32754 ft 506 kts 93°
2026-05-06 11:24 41.34726 0.17251 32915 ft 506 kts 93°
2026-05-06 11:24 41.34668 0.21927 33098 ft 505 kts 93°
2026-05-06 11:25 41.34609 0.26600 33281 ft 505 kts 93°
2026-05-06 11:25 41.34549 0.31262 33462 ft 504 kts 93°
2026-05-06 11:25 41.34486 0.35930 33640 ft 503 kts 93°
2026-05-06 11:25 41.34422 0.40588 33797 ft 503 kts 94°
2026-05-06 11:26 41.34357 0.45243 33948 ft 503 kts 94°
2026-05-06 11:26 41.34215 0.54527 33981 ft 500 kts 94°
2026-05-06 11:27 41.34065 0.63779 33972 ft 500 kts 94°
2026-05-06 11:27 41.33910 0.72976 33973 ft 500 kts 94°
2026-05-06 11:28 41.33749 0.82231 33970 ft 501 kts 94°
2026-05-06 11:28 41.33580 0.91529 33969 ft 502 kts 94°
2026-05-06 11:29 41.33400 1.00812 33966 ft 502 kts 95°
2026-05-06 11:29 41.33212 1.10092 33966 ft 502 kts 95°
2026-05-06 11:30 41.33052 1.17805 33953 ft 502 kts 95°
2026-05-06 11:30 41.32854 1.27095 33954 ft 503 kts 95°
2026-05-06 11:31 41.32615 1.37922 33952 ft 504 kts 95°
2026-05-06 11:31 41.32432 1.45739 33952 ft 504 kts 95°
2026-05-06 11:32 41.32213 1.54996 33944 ft 504 kts 95°
2026-05-06 11:32 41.31984 1.64319 33947 ft 505 kts 95°
2026-05-06 11:33 41.31741 1.73649 33953 ft 505 kts 95°
2026-05-06 11:33 41.31493 1.83000 33956 ft 505 kts 95°
2026-05-06 11:34 41.31240 1.92343 33949 ft 505 kts 96°
2026-05-06 11:34 41.30980 2.01691 33958 ft 505 kts 96°
2026-05-06 11:35 41.30593 2.11015 33962 ft 502 kts 102°
2026-05-06 11:35 41.29190 2.20054 33970 ft 499 kts 107°
2026-05-06 11:36 41.27710 2.29014 33967 ft 499 kts 107°
2026-05-06 11:36 41.26229 2.38007 33961 ft 498 kts 107°
2026-05-06 11:37 41.24737 2.46988 33973 ft 498 kts 108°
2026-05-06 11:37 41.23232 2.55961 33977 ft 497 kts 108°
2026-05-06 11:38 41.21721 2.64923 33978 ft 497 kts 108°
2026-05-06 11:38 41.20201 2.73876 33961 ft 497 kts 108°
2026-05-06 11:39 41.18686 2.82762 33976 ft 496 kts 108°
2026-05-06 11:39 41.17156 2.91750 33981 ft 496 kts 108°
2026-05-06 11:40 41.15636 3.00616 33981 ft 496 kts 108°
2026-05-06 11:40 41.14096 3.09533 33972 ft 495 kts 108°
2026-05-06 11:41 41.12548 3.18432 33981 ft 495 kts 109°
2026-05-06 11:41 41.10996 3.27317 33983 ft 494 kts 109°
2026-05-06 11:42 41.09441 3.36198 33988 ft 494 kts 109°
2026-05-06 11:42 41.07881 3.45069 33942 ft 494 kts 109°
2026-05-06 11:43 41.06310 3.53925 33969 ft 494 kts 109°
2026-05-06 11:43 41.04735 3.62778 33976 ft 494 kts 109°
2026-05-06 11:44 41.02360 3.76041 33979 ft 493 kts 109°
2026-05-06 11:44 41.00774 3.84873 33960 ft 493 kts 109°
2026-05-06 11:45 40.99187 3.93691 33978 ft 492 kts 109°
2026-05-06 11:45 40.97583 4.02503 33987 ft 492 kts 109°
2026-05-06 11:46 40.95979 4.11233 33996 ft 492 kts 109°
2026-05-06 11:46 40.94366 4.20020 33961 ft 491 kts 109°
2026-05-06 11:47 40.92754 4.28800 33977 ft 491 kts 109°
2026-05-06 11:47 40.91130 4.37560 33984 ft 490 kts 110°
2026-05-06 11:48 40.89496 4.46308 33987 ft 490 kts 110°
2026-05-06 11:48 40.87866 4.55052 33988 ft 490 kts 110°
2026-05-06 11:49 40.86230 4.63786 33981 ft 489 kts 109°
2026-05-06 11:49 40.85138 4.72711 33986 ft 494 kts 102°
2026-05-06 11:50 40.84319 4.81717 33986 ft 494 kts 102°
2026-05-06 11:50 40.83479 4.90714 33985 ft 493 kts 102°
2026-05-06 11:51 40.82632 4.99700 33977 ft 493 kts 102°
2026-05-06 11:51 40.81784 5.08625 33987 ft 492 kts 102°
2026-05-06 11:52 40.80924 5.17578 33987 ft 492 kts 102°
2026-05-06 11:52 40.80061 5.26530 33987 ft 491 kts 102°
2026-05-06 11:53 40.79190 5.35474 33971 ft 491 kts 102°
2026-05-06 11:53 40.78320 5.44394 33979 ft 490 kts 102°
2026-05-06 11:54 40.77445 5.53293 33977 ft 488 kts 102°
2026-05-06 11:54 40.76560 5.62165 33984 ft 488 kts 102°
2026-05-06 11:55 40.75676 5.71027 33986 ft 487 kts 102°
2026-05-06 11:55 40.74780 5.79885 33982 ft 487 kts 102°
2026-05-06 11:56 40.73873 5.88726 33987 ft 486 kts 102°
2026-05-06 11:56 40.72964 5.97553 33985 ft 486 kts 102°
2026-05-06 11:57 40.72056 6.06376 33982 ft 485 kts 102°
2026-05-06 11:57 40.71132 6.15194 33967 ft 485 kts 103°
2026-05-06 11:58 40.70206 6.23989 33975 ft 485 kts 103°
2026-05-06 11:58 40.69272 6.32784 33979 ft 485 kts 103°
2026-05-06 11:59 40.68341 6.41520 33980 ft 484 kts 103°
2026-05-06 11:59 40.67400 6.50291 33963 ft 484 kts 103°
2026-05-06 12:00 40.66453 6.59062 33974 ft 483 kts 103°
2026-05-06 12:00 40.65498 6.67837 33980 ft 483 kts 103°
2026-05-06 12:01 40.64535 6.76594 33983 ft 483 kts 103°
2026-05-06 12:01 40.63565 6.85354 33952 ft 482 kts 103°
2026-05-06 12:02 40.62595 6.94093 33970 ft 482 kts 103°
2026-05-06 12:02 40.61615 7.02812 33977 ft 481 kts 103°
2026-05-06 12:03 40.60635 7.11478 33980 ft 481 kts 103°
2026-05-06 12:03 40.59636 7.20207 33984 ft 481 kts 103°
2026-05-06 12:04 40.58635 7.28878 33974 ft 481 kts 103°
2026-05-06 12:04 40.57625 7.37580 33980 ft 480 kts 103°
2026-05-06 12:05 40.56676 7.46282 33975 ft 483 kts 98°
2026-05-06 12:05 40.56998 7.55180 33974 ft 489 kts 86°
2026-05-06 12:06 40.57782 7.64053 33977 ft 488 kts 86°
2026-05-06 12:06 40.58536 7.72876 33988 ft 487 kts 87°
2026-05-06 12:07 40.59283 7.81745 33990 ft 486 kts 87°
2026-05-06 12:07 40.60028 7.90606 33993 ft 486 kts 87°
2026-05-06 12:08 40.60765 7.99423 33973 ft 486 kts 88°
2026-05-06 12:08 40.61499 8.08290 33956 ft 487 kts 88°
2026-05-06 12:09 40.62230 8.17131 33979 ft 488 kts 88°
2026-05-06 12:09 40.63413 8.25946 33988 ft 492 kts 75°
2026-05-06 12:10 40.65944 8.34310 33990 ft 494 kts 70°
2026-05-06 12:10 40.68608 8.42708 33978 ft 502 kts 71°
2026-05-06 12:11 40.71324 8.51310 33975 ft 509 kts 71°
2026-05-06 12:11 40.74022 8.59906 33974 ft 510 kts 71°
2026-05-06 12:12 40.76731 8.68584 33973 ft 510 kts 71°
2026-05-06 12:12 40.79426 8.77242 33981 ft 516 kts 71°
2026-05-06 12:13 40.82141 8.86003 33971 ft 516 kts 71°
2026-05-06 12:13 40.84870 8.94816 33974 ft 516 kts 71°
2026-05-06 12:14 40.87566 9.03549 33974 ft 515 kts 71°
2026-05-06 12:14 40.90276 9.12359 33948 ft 517 kts 71°
2026-05-06 12:15 40.95277 9.28694 33951 ft 520 kts 71°
2026-05-06 12:15 41.00689 9.46457 33956 ft 517 kts 71°
2026-05-06 12:16 41.06028 9.64150 33944 ft 518 kts 71°
2026-05-06 12:16 41.11353 9.81921 33962 ft 519 kts 71°
2026-05-06 12:17 41.16670 9.99727 33968 ft 521 kts 71°
2026-05-06 12:17 41.21948 10.17586 33977 ft 521 kts 71°
2026-05-06 12:18 41.26407 10.32777 33978 ft 519 kts 71°
2026-05-06 12:18 41.29023 10.41687 33702 ft 518 kts 71°
2026-05-06 12:19 41.29892 10.44643 33522 ft 517 kts 71°
2026-05-06 12:19 41.31205 10.49127 33271 ft 517 kts 71°
2026-05-06 12:19 41.32509 10.53594 33007 ft 517 kts 71°
2026-05-06 12:19 41.33795 10.58010 32717 ft 517 kts 71°
2026-05-06 12:20 41.35094 10.62489 31707 ft 522 kts 71°
2026-05-06 12:20 41.36402 10.67015 30713 ft 524 kts 71°
2026-05-06 12:20 41.37721 10.71583 29554 ft 529 kts 71°
2026-05-06 12:20 41.39035 10.76137 28342 ft 519 kts 71°
2026-05-06 12:21 41.40305 10.80540 27298 ft 511 kts 71°
2026-05-06 12:21 41.41578 10.84966 26535 ft 507 kts 71°
2026-05-06 12:21 41.42833 10.89339 25818 ft 504 kts 71°
2026-05-06 12:21 41.44079 10.93691 25087 ft 501 kts 71°
2026-05-06 12:22 41.45313 10.98023 24365 ft 498 kts 71°
2026-05-06 12:22 41.46539 11.02330 23674 ft 495 kts 71°
2026-05-06 12:22 41.47759 11.06613 22895 ft 492 kts 71°
2026-05-06 12:22 41.49237 11.10673 22618 ft 478 kts 58°
2026-05-06 12:23 41.51254 11.14037 22486 ft 463 kts 45°
2026-05-06 12:23 41.53567 11.17107 22172 ft 472 kts 44°
2026-05-06 12:23 41.55928 11.20197 21870 ft 472 kts 44°
2026-05-06 12:23 41.58254 11.23214 21570 ft 470 kts 44°
2026-05-06 12:24 41.60605 11.26250 21235 ft 467 kts 44°
2026-05-06 12:24 41.62937 11.29264 20805 ft 463 kts 44°
2026-05-06 12:24 41.65246 11.32260 20263 ft 458 kts 44°
2026-05-06 12:24 41.67493 11.35191 19731 ft 452 kts 44°
2026-05-06 12:25 41.69736 11.38128 19205 ft 447 kts 44°
2026-05-06 12:25 41.71953 11.41036 18685 ft 442 kts 44°
2026-05-06 12:25 41.74106 11.43863 18173 ft 437 kts 44°
2026-05-06 12:25 41.76269 11.46704 17584 ft 432 kts 44°
2026-05-06 12:26 41.78407 11.49513 17010 ft 429 kts 44°
2026-05-06 12:26 41.80525 11.52296 16445 ft 425 kts 44°
2026-05-06 12:26 41.82628 11.55058 15888 ft 422 kts 44°
2026-05-06 12:26 41.84720 11.57810 15349 ft 420 kts 44°
2026-05-06 12:27 41.86799 11.60553 14833 ft 417 kts 44°
2026-05-06 12:27 41.88865 11.63282 14357 ft 415 kts 44°
2026-05-06 12:27 41.90893 11.65960 13892 ft 413 kts 44°
2026-05-06 12:27 41.92934 11.68653 13358 ft 409 kts 43°
2026-05-06 12:28 41.94979 11.71348 12749 ft 404 kts 43°
2026-05-06 12:28 41.96942 11.73943 12249 ft 398 kts 44°
2026-05-06 12:28 41.98875 11.76502 12120 ft 381 kts 44°
2026-05-06 12:28 42.00725 11.78951 11997 ft 366 kts 43°
2026-05-06 12:29 42.02499 11.81310 11867 ft 352 kts 43°
2026-05-06 12:29 42.04205 11.83585 11742 ft 338 kts 43°
2026-05-06 12:29 42.05772 11.85873 11570 ft 330 kts 54°
2026-05-06 12:29 42.06843 11.88594 11072 ft 328 kts 67°
2026-05-06 12:30 42.07753 11.91386 10580 ft 323 kts 67°
2026-05-06 12:30 42.08644 11.94143 10113 ft 320 kts 67°
2026-05-06 12:30 42.09528 11.96883 9597 ft 317 kts 67°
2026-05-06 12:30 42.10405 11.99613 9078 ft 318 kts 70°
2026-05-06 12:31 42.10848 12.02489 8560 ft 313 kts 93°
2026-05-06 12:31 42.10456 12.05324 8038 ft 306 kts 116°
2026-05-06 12:31 42.09365 12.07658 7543 ft 286 kts 137°
2026-05-06 12:31 42.08027 12.09606 7051 ft 280 kts 137°
2026-05-06 12:32 42.06735 12.11492 6569 ft 268 kts 137°
2026-05-06 12:32 42.05497 12.13305 6068 ft 258 kts 139°
2026-05-06 12:32 42.04308 12.15048 5562 ft 248 kts 137°
2026-05-06 12:32 42.03171 12.16720 5090 ft 236 kts 138°
2026-05-06 12:33 42.02076 12.18299 4586 ft 224 kts 143°
2026-05-06 12:33 42.00837 12.19344 4102 ft 204 kts 163°
2026-05-06 12:33 41.99524 12.19910 3607 ft 195 kts 167°
2026-05-06 12:33 41.98231 12.20433 3131 ft 188 kts 166°
2026-05-06 12:34 41.97020 12.20936 2692 ft 179 kts 166°
2026-05-06 12:34 41.95863 12.21421 2387 ft 169 kts 165°
2026-05-06 12:34 41.94767 12.21881 2153 ft 161 kts 165°
2026-05-06 12:34 41.93734 12.22316 1948 ft 151 kts 165°
2026-05-06 12:35 41.92744 12.22731 1738 ft 147 kts 164°
2026-05-06 12:35 41.91779 12.23136 1537 ft 143 kts 164°
2026-05-06 12:35 41.90829 12.23534 1357 ft 143 kts 164°
2026-05-06 12:35 41.89883 12.23931 1165 ft 142 kts 164°
2026-05-06 12:36 41.88937 12.24330 964 ft 145 kts 164°
2026-05-06 12:36 41.87970 12.24734 762 ft 145 kts 164°
2026-05-06 12:36 41.87016 12.25134 552 ft 143 kts 162°
2026-05-06 12:36 41.86075 12.25527 379 ft 142 kts 163°
2026-05-06 12:37 41.85128 12.25930 184 ft 145 kts 163°
2026-05-06 12:37 41.84168 12.26327 30 ft 142 kts 162°
2026-05-06 12:37 41.83352 12.26672 12 ft 96 kts 162°
2026-05-06 12:37 41.82889 12.26866 13 ft 50 kts 162°
2026-05-06 12:38 41.82664 12.26960 13 ft 24 kts 162°
2026-05-06 12:38 41.82508 12.27025 11 ft 23 kts 162°
2026-05-06 12:38 41.82363 12.27086 9 ft 22 kts 162°
2026-05-06 12:38 41.82218 12.27127 10 ft 21 kts 172°
2026-05-06 12:39 41.82079 12.27140 11 ft 20 kts 186°
2026-05-06 12:39 41.81947 12.27105 11 ft 19 kts 192°
2026-05-06 12:39 41.81817 12.27066 11 ft 19 kts 193°
2026-05-06 12:39 41.81686 12.27052 12 ft 19 kts 172°
2026-05-06 12:40 41.81561 12.27098 12 ft 18 kts 162°